Wetterdaten: aktuell Montag, 21.01.2019 21:45
Datum Zeit Temp. 2m Temp. -50cm Temp. -10cm Temp. -5cm Temp. +5cm Feuchte 2m Feuch. -10cm Luftdruck Regen Wind Richtung Richtung Sonnenschein Solar Windben
21.01.2019 21:45 -3,1 C 1,9 C 1,2 C 0,8 C -1,5 C 78 % 11 cb 922,3 hPa 0,0 l/m 0,0 km/h N 360 0 min 0 W/m 0,0 km/h
21.01.2019 21:40 -3,0 C 1,9 C 1,2 C 0,8 C -1,5 C 78 % 11 cb 922,3 hPa 0,0 l/m 0,0 km/h N 360 0 min 0 W/m 0,0 km/h
21.01.2019 21:35 -3,0 C 1,9 C 1,2 C 0,8 C -1,5 C 79 % 11 cb 922,2 hPa 0,0 l/m 0,0 km/h N 360 0 min 0 W/m 0,0 km/h
21.01.2019 21:30 -3,1 C 1,9 C 1,2 C 0,8 C -1,5 C 79 % 11 cb 922,3 hPa 0,0 l/m 0,0 km/h N 360 0 min 0 W/m 0,0 km/h
21.01.2019 21:25 -3,1 C 1,9 C 1,2 C 0,8 C -1,5 C 79 % 11 cb 922,2 hPa 0,0 l/m 0,0 km/h N 360 0 min 0 W/m 0,0 km/h
21.01.2019 21:20 -3,1 C 1,9 C 1,2 C 0,8 C -1,5 C 78 % 11 cb 922,3 hPa 0,0 l/m 0,0 km/h N 360 0 min 0 W/m 0,0 km/h
21.01.2019 21:15 -3,0 C 1,9 C 1,2 C 0,8 C -1,5 C 78 % 11 cb 1020,9 hPa 0,0 l/m 0,0 km/h N 360 0 min 0 W/m 0,0 km/h
21.01.2019 21:10 -2,9 C 1,9 C 1,2 C 0,8 C -1,4 C 78 % 11 cb 1021,0 hPa 0,0 l/m 0,0 km/h N 360 0 min 0 W/m 0,0 km/h
21.01.2019 21:05 -3,0 C 1,9 C 1,2 C 0,8 C -1,4 C 78 % 11 cb 1021,0 hPa 0,0 l/m 0,0 km/h N 360 0 min 0 W/m 0,0 km/h
21.01.2019 21:00 -2,9 C 1,9 C 1,2 C 0,8 C -1,4 C 78 % 11 cb 1021,0 hPa 0,0 l/m 0,0 km/h N 360 0 min 0 W/m 0,0 km/h
21.01.2019 20:55 -2,8 C 1,9 C 1,2 C 0,8 C -1,4 C 77 % 11 cb 1021,0 hPa 0,0 l/m 0,0 km/h N 360 0 min 0 W/m 0,0 km/h
21.01.2019 20:50 -2,8 C 1,9 C 1,2 C 0,8 C -1,4 C 78 % 11 cb 1021,0 hPa 0,0 l/m 0,0 km/h N 360 0 min 0 W/m 0,0 km/h
21.01.2019 20:45 -2,8 C 1,9 C 1,2 C 0,8 C -1,4 C 78 % 11 cb 1021,0 hPa 0,0 l/m 0,0 km/h N 360 0 min 0 W/m 0,0 km/h
21.01.2019 20:40 -2,8 C 1,9 C 1,2 C 0,8 C -1,4 C 78 % 11 cb 1021,0 hPa 0,0 l/m 0,0 km/h N 360 0 min 0 W/m 0,0 km/h
21.01.2019 20:35 -2,8 C 1,9 C 1,2 C 0,8 C -1,4 C 77 % 11 cb 1021,0 hPa 0,0 l/m 0,0 km/h N 360 0 min 0 W/m 0,0 km/h
21.01.2019 20:30 -2,8 C 1,9 C 1,2 C 0,8 C -1,4 C 78 % 11 cb 1021,0 hPa 0,0 l/m 0,0 km/h N 360 0 min 0 W/m 0,0 km/h
21.01.2019 20:25 -2,8 C 1,9 C 1,2 C 0,8 C -1,4 C 78 % 11 cb 1021,1 hPa 0,0 l/m 0,0 km/h N 360 0 min 0 W/m 0,0 km/h
21.01.2019 20:20 -2,7 C 1,9 C 1,2 C 0,8 C -1,4 C 77 % 11 cb 1021,1 hPa 0,0 l/m 0,0 km/h N 360 0 min 0 W/m 0,0 km/h
21.01.2019 20:15 -2,8 C 1,9 C 1,2 C 0,8 C -1,4 C 77 % 11 cb 1021,1 hPa 0,0 l/m 0,0 km/h N 360 0 min 0 W/m 0,0 km/h
21.01.2019 20:10 -2,7 C 1,9 C 1,2 C 0,8 C -1,4 C 77 % 11 cb 1021,0 hPa 0,0 l/m 0,0 km/h N 360 0 min 0 W/m 0,0 km/h
21.01.2019 20:05 -2,7 C 1,9 C 1,2 C 0,8 C -1,4 C 77 % 11 cb 1021,0 hPa 0,0 l/m 0,0 km/h N 360 0 min 0 W/m 0,0 km/h
21.01.2019 20:00 -2,7 C 1,9 C 1,2 C 0,8 C -1,4 C 77 % 11 cb 1021,0 hPa 0,0 l/m 0,0 km/h N 360 0 min 0 W/m 0,0 km/h
21.01.2019 19:55 -2,7 C 1,9 C 1,2 C 0,8 C -1,4 C 77 % 11 cb 1021,0 hPa 0,0 l/m 0,0 km/h N 360 0 min 0 W/m 0,0 km/h
21.01.2019 19:50 -2,7 C 1,9 C 1,2 C 0,8 C -1,4 C 77 % 11 cb 1021,0 hPa 0,0 l/m 0,0 km/h N 360 0 min 0 W/m 0,0 km/h
21.01.2019 19:45 -2,6 C 1,9 C 1,2 C 0,8 C -1,4 C 76 % 11 cb 1021,0 hPa 0,0 l/m 0,0 km/h N 360 0 min 0 W/m 0,0 km/h
21.01.2019 19:40 -2,7 C 1,9 C 1,2 C 0,8 C -1,4 C 76 % 11 cb 1021,0 hPa 0,0 l/m 0,0 km/h N 360 0 min 0 W/m 0,0 km/h
21.01.2019 19:35 -2,6 C 1,9 C 1,2 C 0,8 C -1,4 C 75 % 11 cb 1020,9 hPa 0,0 l/m 0,0 km/h N 360 0 min 0 W/m 0,0 km/h
21.01.2019 19:30 -2,6 C 1,9 C 1,2 C 0,8 C -1,4 C 74 % 11 cb 1021,0 hPa 0,0 l/m 0,0 km/h N 360 0 min 0 W/m 0,0 km/h
21.01.2019 19:25 -2,4 C 1,9 C 1,2 C 0,8 C -1,4 C 73 % 11 cb 1021,1 hPa 0,0 l/m 0,0 km/h N 360 0 min 0 W/m 0,0 km/h
21.01.2019 19:20 -2,3 C 1,9 C 1,2 C 0,8 C -1,4 C 72 % 11 cb 1021,1 hPa 0,0 l/m 0,0 km/h N 360 0 min 0 W/m 0,0 km/h
21.01.2019 19:15 -2,3 C 1,9 C 1,2 C 0,8 C -1,4 C 72 % 11 cb 1021,0 hPa 0,0 l/m 0,0 km/h N 360 0 min 0 W/m 0,0 km/h
21.01.2019 19:10 -2,3 C 1,9 C 1,2 C 0,8 C -1,4 C 72 % 11 cb 1020,9 hPa 0,0 l/m 0,0 km/h N 360 0 min 0 W/m 0,0 km/h
21.01.2019 19:05 -2,3 C 1,9 C 1,2 C 0,8 C -1,4 C 71 % 11 cb 1020,9 hPa 0,0 l/m 0,0 km/h N 360 0 min 0 W/m 0,0 km/h
21.01.2019 19:00 -2,2 C 1,9 C 1,2 C 0,8 C -1,4 C 71 % 11 cb 1020,8 hPa 0,0 l/m 0,0 km/h N 360 0 min 0 W/m 0,0 km/h
21.01.2019 18:55 -2,1 C 1,9 C 1,2 C 0,8 C -1,4 C 70 % 11 cb 1020,8 hPa 0,0 l/m 0,0 km/h N 360 0 min 0 W/m 0,0 km/h
21.01.2019 18:50 -2,1 C 1,9 C 1,2 C 0,8 C -1,4 C 71 % 11 cb 1020,8 hPa 0,0 l/m 0,0 km/h N 360 0 min 0 W/m 0,0 km/h
21.01.2019 18:45 -2,1 C 1,9 C 1,2 C 0,8 C -1,4 C 71 % 11 cb 1020,8 hPa 0,0 l/m 0,0 km/h N 360 0 min 0 W/m 0,0 km/h
21.01.2019 18:40 -2,1 C 1,9 C 1,2 C 0,8 C -1,4 C 70 % 11 cb 1021,3 hPa 0,0 l/m 0,0 km/h N 360 0 min 0 W/m 0,0 km/h
21.01.2019 18:35 -2,2 C 1,9 C 1,2 C 0,8 C -1,3 C 71 % 11 cb 1020,8 hPa 0,0 l/m 0,0 km/h N 360 0 min 0 W/m 0,0 km/h
21.01.2019 18:30 -2,1 C 1,9 C 1,2 C 0,8 C -1,3 C 70 % 11 cb 1020,8 hPa 0,0 l/m 0,0 km/h N 360 0 min 0 W/m 0,0 km/h
21.01.2019 18:25 -2,1 C 1,9 C 1,2 C 0,8 C -1,3 C 71 % 11 cb 1020,8 hPa 0,0 l/m 0,0 km/h N 360 0 min 0 W/m 0,0 km/h
21.01.2019 18:20 -2,1 C 1,9 C 1,2 C 0,8 C -1,3 C 70 % 11 cb 1020,8 hPa 0,0 l/m 0,0 km/h N 360 0 min 0 W/m 0,0 km/h
21.01.2019 18:15 -2,1 C 1,9 C 1,2 C 0,8 C -1,3 C 71 % 11 cb 1020,8 hPa 0,0 l/m 0,0 km/h N 360 0 min 0 W/m 0,0 km/h
21.01.2019 18:10 -1,9 C 1,9 C 1,2 C 0,8 C -1,3 C 70 % 11 cb 1020,7 hPa 0,0 l/m 0,0 km/h N 360 0 min 0 W/m 0,0 km/h
21.01.2019 18:05 -1,9 C 1,9 C 1,2 C 0,8 C -1,3 C 70 % 11 cb 1020,7 hPa 0,0 l/m 0,0 km/h N 360 0 min 0 W/m 0,0 km/h
21.01.2019 18:00 -1,9 C 1,9 C 1,2 C 0,8 C -1,3 C 70 % 11 cb 1020,7 hPa 0,0 l/m 0,0 km/h N 360 0 min 0 W/m 0,0 km/h
21.01.2019 17:55 -1,9 C 1,9 C 1,2 C 0,8 C -1,3 C 70 % 11 cb 1020,7 hPa 0,0 l/m 0,0 km/h N 360 0 min 0 W/m 0,0 km/h
21.01.2019 17:50 -2,0 C 1,9 C 1,2 C 0,8 C -1,3 C 71 % 11 cb 1020,7 hPa 0,0 l/m 0,0 km/h N 360 0 min 0 W/m 0,0 km/h
21.01.2019 17:45 -1,9 C 1,9 C 1,2 C 0,8 C -1,2 C 71 % 11 cb 1020,7 hPa 0,0 l/m 0,0 km/h N 360 0 min 0 W/m 0,0 km/h
21.01.2019 17:40 -1,9 C 1,9 C 1,2 C 0,8 C -1,2 C 70 % 11 cb 1020,7 hPa 0,0 l/m 0,0 km/h N 360 0 min 0 W/m 0,0 km/h
21.01.2019 17:35 -1,9 C 1,9 C 1,2 C 0,8 C -1,2 C 70 % 11 cb 1020,8 hPa 0,0 l/m 0,0 km/h N 360 0 min 0 W/m 0,0 km/h
21.01.2019 17:30 -1,8 C 1,9 C 1,2 C 0,8 C -1,2 C 70 % 11 cb 1020,7 hPa 0,0 l/m 0,0 km/h N 360 0 min 0 W/m 0,0 km/h
21.01.2019 17:25 -1,8 C 1,9 C 1,2 C 0,8 C -1,2 C 71 % 11 cb 1020,7 hPa 0,0 l/m 0,0 km/h N 360 0 min 0 W/m 0,0 km/h
21.01.2019 17:20 -1,8 C 1,9 C 1,2 C 0,8 C -1,2 C 70 % 11 cb 1020,6 hPa 0,0 l/m 0,0 km/h N 360 0 min 0 W/m 0,0 km/h
21.01.2019 17:15 -1,7 C 1,9 C 1,2 C 0,8 C -1,2 C 70 % 11 cb 1020,7 hPa 0,0 l/m 0,0 km/h N 360 0 min 0 W/m 0,0 km/h
21.01.2019 17:10 -1,6 C 1,9 C 1,2 C 0,8 C -1,2 C 70 % 11 cb 1020,8 hPa 0,0 l/m 0,0 km/h N 360 0 min 0 W/m 0,0 km/h
21.01.2019 17:05 -1,6 C 1,9 C 1,2 C 0,8 C -1,2 C 70 % 11 cb 1020,7 hPa 0,0 l/m 0,0 km/h N 360 0 min 0 W/m 0,0 km/h
21.01.2019 17:00 -1,6 C 1,9 C 1,2 C 0,8 C -1,2 C 70 % 11 cb 1020,8 hPa 0,0 l/m 0,0 km/h N 360 0 min 0 W/m 0,0 km/h
21.01.2019 16:55 -1,6 C 1,9 C 1,2 C 0,8 C -1,2 C 72 % 11 cb 1020,7 hPa 0,0 l/m 0,0 km/h N 360 0 min 2 W/m 0,0 km/h
21.01.2019 16:50 -1,6 C 1,9 C 1,2 C 0,8 C -1,2 C 71 % 11 cb 1020,7 hPa 0,0 l/m 0,0 km/h N 360 0 min 6 W/m 0,0 km/h
21.01.2019 16:45 -1,6 C 1,9 C 1,2 C 0,8 C -1,2 C 69 % 11 cb 1020,8 hPa 0,0 l/m 0,0 km/h N 360 0 min 9 W/m 0,0 km/h
21.01.2019 16:40 -1,3 C 1,9 C 1,2 C 0,8 C -1,2 C 68 % 11 cb 1020,8 hPa 0,0 l/m 0,0 km/h N 360 0 min 12 W/m 0,0 km/h
21.01.2019 16:35 -1,3 C 1,9 C 1,2 C 0,8 C -1,2 C 68 % 11 cb 1020,8 hPa 0,0 l/m 0,0 km/h N 360 0 min 16 W/m 0,0 km/h
21.01.2019 16:30 -1,1 C 1,9 C 1,2 C 0,8 C -1,2 C 67 % 11 cb 1020,7 hPa 0,0 l/m 0,0 km/h N 360 0 min 19 W/m 0,0 km/h
21.01.2019 16:25 -1,1 C 1,9 C 1,2 C 0,8 C -1,2 C 66 % 11 cb 1020,8 hPa 0,0 l/m 0,0 km/h N 360 0 min 23 W/m 0,0 km/h
21.01.2019 16:20 -1,1 C 1,9 C 1,2 C 0,8 C -1,1 C 65 % 10 cb 1020,7 hPa 0,0 l/m 0,0 km/h N 360 0 min 26 W/m 0,0 km/h
21.01.2019 16:15 -0,8 C 1,9 C 1,2 C 0,8 C -1,1 C 61 % 11 cb 1020,8 hPa 0,0 l/m 0,0 km/h N 360 0 min 30 W/m 0,0 km/h
21.01.2019 16:10 -0,8 C 1,9 C 1,2 C 0,8 C -1,1 C 62 % 11 cb 1020,8 hPa 0,0 l/m 0,0 km/h N 360 0 min 35 W/m 0,0 km/h
21.01.2019 16:05 -0,8 C 1,9 C 1,2 C 0,8 C -1,1 C 63 % 11 cb 1020,8 hPa 0,0 l/m 0,0 km/h N 360 0 min 40 W/m 0,0 km/h
21.01.2019 16:00 -0,8 C 1,9 C 1,2 C 0,8 C -1,1 C 63 % 10 cb 1020,7 hPa 0,0 l/m 0,0 km/h N 360 0 min 45 W/m 0,0 km/h
21.01.2019 15:55 -0,8 C 1,9 C 1,2 C 0,8 C -1,1 C 65 % 10 cb 1020,8 hPa 0,0 l/m 0,0 km/h N 360 0 min 51 W/m 0,0 km/h
21.01.2019 15:50 -0,9 C 1,9 C 1,2 C 0,8 C -1,1 C 64 % 10 cb 1020,8 hPa 0,0 l/m 0,0 km/h N 360 0 min 56 W/m 0,0 km/h
21.01.2019 15:45 -0,9 C 1,9 C 1,2 C 0,8 C -1,1 C 65 % 10 cb 1020,8 hPa 0,0 l/m 0,0 km/h N 360 0 min 63 W/m 0,0 km/h
21.01.2019 15:40 -0,9 C 1,9 C 1,2 C 0,8 C -1,1 C 65 % 10 cb 1020,8 hPa 0,0 l/m 0,0 km/h N 360 0 min 70 W/m 0,0 km/h
21.01.2019 15:35 -0,9 C 1,9 C 1,2 C 0,8 C -1,1 C 66 % 10 cb 1020,8 hPa 0,0 l/m 0,0 km/h N 360 0 min 78 W/m 0,0 km/h
21.01.2019 15:30 -0,9 C 1,9 C 1,2 C 0,8 C -1,1 C 68 % 10 cb 1020,8 hPa 0,0 l/m 0,0 km/h N 360 0 min 90 W/m 0,0 km/h
21.01.2019 15:25 -0,9 C 1,9 C 1,2 C 0,8 C -1,1 C 66 % 10 cb 1020,8 hPa 0,0 l/m 0,0 km/h N 360 0 min 109 W/m 0,0 km/h
21.01.2019 15:20 -0,8 C 1,9 C 1,2 C 0,8 C -1,1 C 67 % 10 cb 1020,8 hPa 0,0 l/m 1,1 km/h W-SW 248 5 min 189 W/m 3,2 km/h
21.01.2019 15:15 -1,2 C 1,9 C 1,2 C 0,8 C -1,1 C 68 % 10 cb 1020,8 hPa 0,0 l/m 2,8 km/h W-SW 248 5 min 178 W/m 4,8 km/h
21.01.2019 15:10 -1,3 C 1,9 C 1,2 C 0,8 C -1,1 C 67 % 10 cb 1020,8 hPa 0,0 l/m 2,0 km/h W-SW 248 0 min 125 W/m 4,8 km/h
21.01.2019 15:05 -1,1 C 1,9 C 1,2 C 0,8 C -1,1 C 65 % 10 cb 1020,7 hPa 0,0 l/m 0,0 km/h N 360 0 min 115 W/m 0,0 km/h
21.01.2019 15:00 -1,0 C 1,9 C 1,2 C 0,8 C -1,1 C 63 % 10 cb 1020,7 hPa 0,0 l/m 0,0 km/h N 360 0 min 106 W/m 0,0 km/h
21.01.2019 14:55 -0,8 C 1,9 C 1,2 C 0,8 C -1,1 C 58 % 10 cb 1020,7 hPa 0,0 l/m 0,0 km/h N 360 0 min 116 W/m 0,0 km/h
21.01.2019 14:50 -0,9 C 1,9 C 1,2 C 0,8 C -1,1 C 59 % 10 cb 1020,7 hPa 0,0 l/m 0,0 km/h N 360 0 min 118 W/m 0,0 km/h
21.01.2019 14:45 -1,0 C 1,9 C 1,2 C 0,8 C -1,1 C 61 % 10 cb 1020,8 hPa 0,0 l/m 0,2 km/h W-SW 248 0 min 112 W/m 3,2 km/h
21.01.2019 14:40 -0,8 C 1,9 C 1,2 C 0,8 C -1,1 C 61 % 10 cb 1020,8 hPa 0,0 l/m 2,3 km/h W-SW 248 0 min 119 W/m 3,2 km/h
21.01.2019 14:35 -0,8 C 1,9 C 1,2 C 0,8 C -1,1 C 61 % 10 cb 1020,8 hPa 0,0 l/m 1,8 km/h W-SW 248 0 min 128 W/m 3,2 km/h
21.01.2019 14:30 -0,9 C 1,9 C 1,2 C 0,8 C -1,1 C 61 % 10 cb 1020,8 hPa 0,0 l/m 0,0 km/h N 360 0 min 133 W/m 0,0 km/h
21.01.2019 14:25 -0,9 C 1,9 C 1,2 C 0,8 C -1,1 C 61 % 10 cb 1020,8 hPa 0,0 l/m 0,0 km/h N 360 0 min 141 W/m 0,0 km/h
21.01.2019 14:20 -0,8 C 1,9 C 1,2 C 0,8 C -1,1 C 60 % 10 cb 1020,9 hPa 0,0 l/m 0,0 km/h N 360 0 min 150 W/m 0,0 km/h
21.01.2019 14:15 -0,8 C 1,9 C 1,2 C 0,8 C -1,1 C 60 % 10 cb 1020,9 hPa 0,0 l/m 0,0 km/h N 360 0 min 162 W/m 0,0 km/h
21.01.2019 14:10 -0,8 C 1,9 C 1,2 C 0,8 C -1,1 C 59 % 10 cb 1021,0 hPa 0,0 l/m 0,1 km/h W-SW 248 0 min 174 W/m 1,6 km/h
21.01.2019 14:05 -0,9 C 1,9 C 1,2 C 0,8 C -1,1 C 60 % 10 cb 1021,1 hPa 0,0 l/m 0,2 km/h W-SW 248 0 min 181 W/m 1,6 km/h
21.01.2019 14:00 -0,9 C 1,9 C 1,2 C 0,8 C -1,1 C 61 % 10 cb 1021,1 hPa 0,0 l/m 0,2 km/h W-SW 248 0 min 185 W/m 1,6 km/h
21.01.2019 13:55 -1,0 C 1,9 C 1,2 C 0,8 C -1,1 C 61 % 10 cb 1021,2 hPa 0,0 l/m 0,1 km/h W-SW 248 0 min 181 W/m 1,6 km/h
21.01.2019 13:50 -1,1 C 1,9 C 1,2 C 0,8 C -1,1 C 60 % 10 cb 1021,1 hPa 0,0 l/m 0,5 km/h W-SW 248 0 min 183 W/m 1,6 km/h
21.01.2019 13:45 -1,2 C 1,9 C 1,2 C 0,8 C -1,2 C 60 % 10 cb 1021,2 hPa 0,0 l/m 1,4 km/h W-SW 248 0 min 178 W/m 3,2 km/h
21.01.2019 13:40 -1,2 C 1,9 C 1,2 C 0,8 C -1,2 C 62 % 10 cb 1021,3 hPa 0,0 l/m 0,2 km/h W-SW 248 0 min 179 W/m 3,2 km/h
21.01.2019 13:35 -1,3 C 1,9 C 1,2 C 0,8 C -1,2 C 62 % 10 cb 1021,3 hPa 0,0 l/m 0,0 km/h N 360 0 min 197 W/m 0,0 km/h
21.01.2019 13:30 -1,3 C 1,9 C 1,2 C 0,8 C -1,2 C 64 % 10 cb 1021,5 hPa 0,0 l/m 0,0 km/h N 360 5 min 205 W/m 0,0 km/h
21.01.2019 13:25 -1,2 C 1,9 C 1,2 C 0,8 C -1,2 C 63 % 10 cb 1021,4 hPa 0,0 l/m 0,4 km/h W-SW 248 5 min 206 W/m 1,6 km/h
21.01.2019 13:20 -1,2 C 1,9 C 1,2 C 0,8 C -1,2 C 63 % 10 cb 1021,6 hPa 0,0 l/m 0,2 km/h W-SW 248 5 min 209 W/m 3,2 km/h
21.01.2019 13:15 -1,3 C 1,9 C 1,2 C 0,8 C -1,2 C 66 % 10 cb 1021,5 hPa 0,0 l/m 0,0 km/h N 360 0 min 201 W/m 0,0 km/h
21.01.2019 13:10 -1,4 C 1,9 C 1,2 C 0,8 C -1,2 C 68 % 10 cb 1021,6 hPa 0,0 l/m 1,8 km/h W-SW 248 0 min 195 W/m 4,8 km/h
21.01.2019 13:05 -1,7 C 1,9 C 1,2 C 0,8 C -1,3 C 64 % 10 cb 1021,7 hPa 0,0 l/m 1,9 km/h NW 315 0 min 199 W/m 3,2 km/h
21.01.2019 13:00 -1,8 C 1,9 C 1,2 C 0,8 C -1,3 C 64 % 10 cb 1021,7 hPa 0,0 l/m 2,8 km/h NW 315 0 min 197 W/m 4,8 km/h
21.01.2019 12:55 -1,8 C 1,9 C 1,2 C 0,8 C -1,3 C 64 % 10 cb 1021,8 hPa 0,0 l/m 1,2 km/h NW 315 0 min 197 W/m 3,2 km/h
21.01.2019 12:50 -1,8 C 1,9 C 1,2 C 0,8 C -1,3 C 64 % 10 cb 1021,8 hPa 0,0 l/m 0,0 km/h N 360 0 min 204 W/m 0,0 km/h
21.01.2019 12:45 -2,0 C 1,9 C 1,2 C 0,8 C -1,3 C 65 % 10 cb 1021,9 hPa 0,0 l/m 0,5 km/h NW 315 5 min 220 W/m 3,2 km/h
21.01.2019 12:40 -1,9 C 1,9 C 1,2 C 0,8 C -1,4 C 64 % 10 cb 1021,9 hPa 0,0 l/m 1,3 km/h NW 315 5 min 228 W/m 3,2 km/h
21.01.2019 12:35 -2,0 C 1,9 C 1,2 C 0,8 C -1,4 C 65 % 10 cb 1022,0 hPa 0,0 l/m 0,0 km/h N 360 5 min 233 W/m 0,0 km/h
21.01.2019 12:30 -2,1 C 1,9 C 1,2 C 0,8 C -1,4 C 65 % 10 cb 1022,0 hPa 0,0 l/m 1,3 km/h NW 315 5 min 235 W/m 3,2 km/h
21.01.2019 12:25 -2,2 C 1,9 C 1,2 C 0,8 C -1,5 C 66 % 10 cb 1022,1 hPa 0,0 l/m 1,6 km/h NW 315 5 min 234 W/m 4,8 km/h
21.01.2019 12:20 -2,3 C 1,9 C 1,2 C 0,8 C -1,5 C 66 % 10 cb 1022,2 hPa 0,0 l/m 1,1 km/h NW 315 5 min 231 W/m 4,8 km/h
21.01.2019 12:15 -2,3 C 1,9 C 1,2 C 0,8 C -1,5 C 65 % 10 cb 1022,1 hPa 0,0 l/m 0,0 km/h N 360 5 min 234 W/m 0,0 km/h
21.01.2019 12:10 -2,5 C 1,9 C 1,2 C 0,8 C -1,6 C 67 % 10 cb 1022,2 hPa 0,0 l/m 0,0 km/h N 360 5 min 236 W/m 0,0 km/h
21.01.2019 12:05 -2,7 C 1,9 C 1,2 C 0,8 C -1,6 C 67 % 10 cb 1022,2 hPa 0,0 l/m 0,0 km/h N 360 5 min 236 W/m 0,0 km/h
21.01.2019 12:00 -2,7 C 1,9 C 1,2 C 0,8 C -1,6 C 67 % 10 cb 1022,3 hPa 0,0 l/m 0,0 km/h N 360 5 min 237 W/m 0,0 km/h
21.01.2019 11:55 -2,8 C 1,9 C 1,2 C 0,8 C -1,7 C 67 % 10 cb 1022,3 hPa 0,0 l/m 0,0 km/h N 360 5 min 234 W/m 0,0 km/h
21.01.2019 11:50 -2,9 C 1,9 C 1,2 C 0,8 C -1,7 C 68 % 10 cb 1022,4 hPa 0,0 l/m 1,0 km/h N-NW 338 5 min 231 W/m 3,2 km/h
21.01.2019 11:45 -2,9 C 1,9 C 1,2 C 0,8 C -1,7 C 69 % 10 cb 1022,5 hPa 0,0 l/m 0,3 km/h N-NW 338 5 min 221 W/m 3,2 km/h
21.01.2019 11:40 -3,1 C 1,9 C 1,2 C 0,8 C -1,7 C 69 % 10 cb 1022,6 hPa 0,0 l/m 0,0 km/h N 360 5 min 214 W/m 0,0 km/h
21.01.2019 11:35 -3,1 C 1,9 C 1,2 C 0,8 C -1,8 C 69 % 10 cb 1022,7 hPa 0,0 l/m 0,5 km/h N-NW 338 5 min 210 W/m 1,6 km/h
21.01.2019 11:30 -3,1 C 1,9 C 1,2 C 0,8 C -1,8 C 70 % 10 cb 1022,8 hPa 0,0 l/m 0,4 km/h N-NW 338 5 min 206 W/m 3,2 km/h
21.01.2019 11:25 -3,2 C 1,9 C 1,2 C 0,8 C -1,9 C 69 % 10 cb 1022,9 hPa 0,0 l/m 0,3 km/h N-NW 338 5 min 209 W/m 1,6 km/h
21.01.2019 11:20 -3,3 C 1,9 C 1,2 C 0,8 C -1,9 C 69 % 10 cb 1023,0 hPa 0,0 l/m 0,0 km/h N-NW 338 5 min 212 W/m 1,6 km/h
21.01.2019 11:15 -3,5 C 1,9 C 1,2 C 0,8 C -2,0 C 70 % 10 cb 1023,1 hPa 0,0 l/m 1,0 km/h N-NW 338 5 min 219 W/m 3,2 km/h
21.01.2019 11:10 -3,5 C 1,9 C 1,2 C 0,8 C -2,0 C 70 % 10 cb 1023,1 hPa 0,0 l/m 1,5 km/h N-NW 338 5 min 215 W/m 3,2 km/h
21.01.2019 11:05 -3,5 C 1,9 C 1,2 C 0,8 C -2,1 C 70 % 10 cb 1023,2 hPa 0,0 l/m 1,3 km/h N-NW 338 5 min 215 W/m 3,2 km/h
21.01.2019 11:00 -3,6 C 1,9 C 1,2 C 0,8 C -2,1 C 71 % 10 cb 1023,3 hPa 0,0 l/m 0,0 km/h N 360 5 min 219 W/m 0,0 km/h
21.01.2019 10:55 -3,8 C 1,9 C 1,2 C 0,8 C -2,2 C 73 % 10 cb 1023,3 hPa 0,0 l/m 0,0 km/h N 360 5 min 219 W/m 0,0 km/h
21.01.2019 10:50 -3,9 C 1,9 C 1,2 C 0,8 C -2,2 C 72 % 10 cb 1023,3 hPa 0,0 l/m 0,0 km/h N 360 5 min 214 W/m 0,0 km/h
21.01.2019 10:45 -4,0 C 1,9 C 1,2 C 0,8 C -2,2 C 73 % 10 cb 1023,3 hPa 0,0 l/m 0,0 km/h N-NW 338 5 min 217 W/m 1,6 km/h
21.01.2019 10:40 -4,1 C 1,9 C 1,2 C 0,8 C -2,3 C 73 % 10 cb 1023,3 hPa 0,0 l/m 0,9 km/h N-NW 338 5 min 218 W/m 3,2 km/h
21.01.2019 10:35 -4,2 C 1,9 C 1,2 C 0,8 C -2,4 C 73 % 10 cb 1023,3 hPa 0,0 l/m 0,3 km/h N-NW 338 5 min 217 W/m 3,2 km/h
21.01.2019 10:30 -4,4 C 1,9 C 1,2 C 0,8 C -2,4 C 74 % 10 cb 1023,3 hPa 0,0 l/m 0,2 km/h N-NW 338 5 min 214 W/m 1,6 km/h
21.01.2019 10:25 -4,7 C 1,9 C 1,2 C 0,8 C -2,4 C 73 % 10 cb 1023,3 hPa 0,0 l/m 0,4 km/h N-NW 338 5 min 208 W/m 3,2 km/h
21.01.2019 10:20 -4,7 C 1,9 C 1,2 C 0,8 C -2,6 C 74 % 10 cb 1023,2 hPa 0,0 l/m 3,5 km/h NW 315 5 min 200 W/m 4,8 km/h
21.01.2019 10:15 -4,3 C 1,9 C 1,2 C 0,8 C -2,6 C 72 % 10 cb 1023,3 hPa 0,0 l/m 2,6 km/h NW 315 5 min 191 W/m 4,8 km/h
21.01.2019 10:10 -4,6 C 1,9 C 1,2 C 0,8 C -2,6 C 73 % 10 cb 1023,2 hPa 0,0 l/m 0,7 km/h W-SW 248 5 min 184 W/m 3,2 km/h
21.01.2019 10:05 -4,7 C 1,9 C 1,2 C 0,8 C -2,7 C 73 % 10 cb 1023,2 hPa 0,0 l/m 2,0 km/h W-SW 248 5 min 175 W/m 4,8 km/h
21.01.2019 10:00 -4,8 C 1,9 C 1,2 C 0,8 C -2,7 C 74 % 10 cb 1023,1 hPa 0,0 l/m 2,5 km/h W-SW 248 5 min 163 W/m 4,8 km/h
21.01.2019 09:55 -5,0 C 1,9 C 1,2 C 0,8 C -2,8 C 75 % 10 cb 1023,2 hPa 0,0 l/m 1,5 km/h W-SW 248 5 min 153 W/m 3,2 km/h
21.01.2019 09:50 -5,3 C 1,9 C 1,2 C 0,8 C -2,9 C 75 % 10 cb 1023,1 hPa 0,0 l/m 0,0 km/h N 360 5 min 143 W/m 0,0 km/h
21.01.2019 09:45 -5,3 C 1,9 C 1,2 C 0,8 C -2,9 C 76 % 10 cb 1023,1 hPa 0,0 l/m 0,2 km/h W-SW 248 0 min 131 W/m 1,6 km/h
21.01.2019 09:40 -5,3 C 1,9 C 1,2 C 0,8 C -2,9 C 76 % 10 cb 1023,2 hPa 0,0 l/m 1,1 km/h W-SW 248 0 min 120 W/m 3,2 km/h
21.01.2019 09:35 -5,4 C 1,9 C 1,2 C 0,8 C -3,1 C 76 % 10 cb 1023,0 hPa 0,0 l/m 0,0 km/h W-SW 248 0 min 110 W/m 1,6 km/h
21.01.2019 09:30 -5,4 C 1,9 C 1,2 C 0,8 C -3,1 C 76 % 10 cb 1023,1 hPa 0,0 l/m 2,6 km/h W-SW 248 0 min 99 W/m 4,8 km/h
21.01.2019 09:25 -5,6 C 1,9 C 1,2 C 0,8 C -3,1 C 75 % 10 cb 1023,0 hPa 0,0 l/m 1,9 km/h SW 225 0 min 89 W/m 4,8 km/h
21.01.2019 09:20 -5,6 C 1,9 C 1,2 C 0,8 C -3,2 C 76 % 10 cb 1023,0 hPa 0,0 l/m 1,4 km/h SW 225 0 min 82 W/m 3,2 km/h
21.01.2019 09:15 -5,7 C 1,9 C 1,2 C 0,8 C -3,2 C 76 % 10 cb 1023,0 hPa 0,0 l/m 2,0 km/h SW 225 0 min 75 W/m 3,2 km/h
21.01.2019 09:10 -5,8 C 1,9 C 1,2 C 0,8 C -3,3 C 76 % 10 cb 1022,9 hPa 0,0 l/m 3,0 km/h SW 225 0 min 67 W/m 4,8 km/h
21.01.2019 09:05 -5,9 C 1,9 C 1,2 C 0,8 C -3,3 C 78 % 10 cb 1022,9 hPa 0,0 l/m 2,9 km/h S-SW 202 0 min 60 W/m 6,4 km/h
21.01.2019 09:00 -6,1 C 1,9 C 1,2 C 0,8 C -3,4 C 79 % 10 cb 1022,9 hPa 0,0 l/m 0,1 km/h S-SW 202 0 min 49 W/m 3,2 km/h
21.01.2019 08:55 -6,1 C 1,9 C 1,2 C 0,8 C -3,4 C 79 % 10 cb 1022,9 hPa 0,0 l/m 0,0 km/h N 360 0 min 39 W/m 0,0 km/h
21.01.2019 08:50 -6,2 C 1,9 C 1,2 C 0,8 C -3,4 C 79 % 10 cb 1022,9 hPa 0,0 l/m 0,0 km/h N 360 0 min 34 W/m 0,0 km/h
21.01.2019 08:45 -6,2 C 1,9 C 1,2 C 0,8 C -3,4 C 79 % 10 cb 1022,9 hPa 0,0 l/m 1,0 km/h S-SW 202 0 min 32 W/m 3,2 km/h
21.01.2019 08:40 -6,4 C 1,9 C 1,2 C 0,8 C -3,6 C 80 % 10 cb 1022,8 hPa 0,0 l/m 0,2 km/h S-SW 202 0 min 31 W/m 1,6 km/h
21.01.2019 08:35 -6,4 C 1,9 C 1,2 C 0,8 C -3,6 C 80 % 10 cb 1022,7 hPa 0,0 l/m 1,2 km/h S-SW 202 0 min 31 W/m 3,2 km/h
21.01.2019 08:30 -6,6 C 1,9 C 1,2 C 0,8 C -3,6 C 80 % 10 cb 1022,8 hPa 0,0 l/m 1,7 km/h S-SW 202 0 min 21 W/m 3,2 km/h
21.01.2019 08:25 -6,7 C 1,9 C 1,2 C 0,8 C -3,6 C 80 % 10 cb 1022,6 hPa 0,0 l/m 1,9 km/h S-SW 202 0 min 18 W/m 3,2 km/h
21.01.2019 08:20 -6,8 C 1,9 C 1,2 C 0,8 C -3,7 C 80 % 10 cb 1022,6 hPa 0,0 l/m 2,4 km/h S-SW 202 0 min 14 W/m 3,2 km/h
21.01.2019 08:15 -6,8 C 1,9 C 1,2 C 0,8 C -3,7 C 80 % 10 cb 1022,6 hPa 0,0 l/m 0,6 km/h S-SW 202 0 min 14 W/m 1,6 km/h
21.01.2019 08:10 -6,9 C 1,9 C 1,2 C 0,8 C -3,7 C 80 % 10 cb 1022,5 hPa 0,0 l/m 0,7 km/h S-SW 202 0 min 12 W/m 1,6 km/h
21.01.2019 08:05 -7,0 C 1,9 C 1,2 C 0,8 C -3,8 C 81 % 10 cb 1022,5 hPa 0,0 l/m 1,1 km/h S-SW 202 0 min 8 W/m 1,6 km/h
21.01.2019 08:00 -7,1 C 1,9 C 1,2 C 0,8 C -3,8 C 81 % 10 cb 1022,5 hPa 0,0 l/m 0,2 km/h S-SW 202 0 min 5 W/m 1,6 km/h
21.01.2019 07:55 -7,2 C 1,9 C 1,2 C 0,8 C -3,8 C 81 % 10 cb 1022,5 hPa 0,0 l/m 1,7 km/h S-SW 202 0 min 3 W/m 4,8 km/h
21.01.2019 07:50 -7,2 C 1,9 C 1,2 C 0,8 C -3,9 C 81 % 10 cb 1022,4 hPa 0,0 l/m 2,7 km/h S-SW 202 0 min 0 W/m 4,8 km/h
21.01.2019 07:45 -7,3 C 1,9 C 1,2 C 0,8 C -3,9 C 81 % 10 cb 1022,4 hPa 0,0 l/m 3,2 km/h S-SW 202 0 min 0 W/m 4,8 km/h
21.01.2019 07:40 -7,6 C 1,9 C 1,2 C 0,8 C -3,9 C 81 % 10 cb 1022,4 hPa 0,0 l/m 2,8 km/h S-SW 202 0 min 0 W/m 4,8 km/h
21.01.2019 07:35 -7,7 C 1,9 C 1,2 C 0,8 C -3,9 C 81 % 10 cb 1022,3 hPa 0,0 l/m 2,9 km/h S-SW 202 0 min 0 W/m 4,8 km/h
21.01.2019 07:30 -7,8 C 1,9 C 1,2 C 0,8 C -3,9 C 80 % 10 cb 1022,4 hPa 0,0 l/m 1,6 km/h SW 225 0 min 0 W/m 4,8 km/h
21.01.2019 07:25 -7,8 C 1,9 C 1,2 C 0,8 C -3,9 C 81 % 10 cb 1022,3 hPa 0,0 l/m 0,0 km/h N 360 0 min 0 W/m 0,0 km/h
21.01.2019 07:20 -7,8 C 1,9 C 1,2 C 0,8 C -3,9 C 81 % 10 cb 1022,3 hPa 0,0 l/m 0,0 km/h N 360 0 min 0 W/m 0,0 km/h
21.01.2019 07:15 -7,8 C 1,9 C 1,2 C 0,8 C -3,9 C 81 % 10 cb 1022,2 hPa 0,0 l/m 0,8 km/h SW 225 0 min 0 W/m 1,6 km/h
21.01.2019 07:10 -7,9 C 1,9 C 1,2 C 0,8 C -4,1 C 80 % 10 cb 1022,2 hPa 0,0 l/m 1,0 km/h SW 225 0 min 0 W/m 1,6 km/h
21.01.2019 07:05 -7,8 C 1,9 C 1,2 C 0,8 C -4,1 C 80 % 10 cb 1022,2 hPa 0,0 l/m 2,0 km/h SW 225 0 min 0 W/m 3,2 km/h
21.01.2019 07:00 -7,9 C 1,9 C 1,2 C 0,8 C -4,1 C 80 % 10 cb 1022,1 hPa 0,0 l/m 1,3 km/h SW 225 0 min 0 W/m 3,2 km/h
21.01.2019 06:55 -7,9 C 1,9 C 1,2 C 0,8 C -4,1 C 80 % 10 cb 1022,1 hPa 0,0 l/m 1,6 km/h SW 225 0 min 0 W/m 3,2 km/h
21.01.2019 06:50 -8,0 C 1,9 C 1,2 C 0,8 C -4,1 C 81 % 10 cb 1022,0 hPa 0,0 l/m 0,8 km/h SW 225 0 min 0 W/m 3,2 km/h
21.01.2019 06:45 -8,1 C 1,9 C 1,2 C 0,8 C -4,1 C 81 % 10 cb 1022,0 hPa 0,0 l/m 1,6 km/h SW 225 0 min 0 W/m 4,8 km/h
21.01.2019 06:40 -8,1 C 1,9 C 1,2 C 0,8 C -4,1 C 81 % 10 cb 1022,1 hPa 0,0 l/m 2,6 km/h SW 225 0 min 0 W/m 4,8 km/h
21.01.2019 06:35 -7,9 C 1,9 C 1,2 C 0,8 C -4,1 C 80 % 10 cb 1022,0 hPa 0,0 l/m 2,8 km/h S-SW 202 0 min 0 W/m 4,8 km/h
21.01.2019 06:30 -7,9 C 1,9 C 1,2 C 0,8 C -4,1 C 80 % 10 cb 1022,0 hPa 0,0 l/m 2,0 km/h S-SW 202 0 min 0 W/m 4,8 km/h
21.01.2019 06:25 -8,0 C 1,9 C 1,2 C 0,8 C -4,1 C 81 % 10 cb 1022,0 hPa 0,0 l/m 2,5 km/h S-SW 202 0 min 0 W/m 4,8 km/h
21.01.2019 06:20 -8,2 C 1,9 C 1,2 C 0,8 C -4,1 C 81 % 10 cb 1021,9 hPa 0,0 l/m 4,3 km/h S-SW 202 0 min 0 W/m 4,8 km/h
21.01.2019 06:15 -8,3 C 1,9 C 1,2 C 0,8 C -4,1 C 82 % 10 cb 1021,9 hPa 0,0 l/m 5,1 km/h S-SW 202 0 min 0 W/m 6,4 km/h
21.01.2019 06:10 -8,6 C 1,9 C 1,2 C 0,8 C -4,1 C 81 % 10 cb 1021,9 hPa 0,0 l/m 5,0 km/h S-SW 202 0 min 0 W/m 6,4 km/h
21.01.2019 06:05 -8,6 C 1,9 C 1,2 C 0,8 C -4,1 C 80 % 10 cb 1021,9 hPa 0,0 l/m 3,5 km/h S-SW 202 0 min 0 W/m 6,4 km/h
21.01.2019 06:00 -8,3 C 1,9 C 1,2 C 0,8 C -4,1 C 80 % 10 cb 1021,9 hPa 0,0 l/m 2,9 km/h S-SW 202 0 min 0 W/m 4,8 km/h
21.01.2019 05:55 -8,2 C 1,9 C 1,2 C 0,8 C -4,1 C 80 % 10 cb 1021,8 hPa 0,0 l/m 2,8 km/h S-SW 202 0 min 0 W/m 4,8 km/h
21.01.2019 05:50 -8,0 C 1,9 C 1,2 C 0,8 C -3,9 C 79 % 10 cb 1021,7 hPa 0,0 l/m 0,0 km/h N 360 0 min 0 W/m 0,0 km/h
21.01.2019 05:45 -8,1 C 1,9 C 1,2 C 0,8 C -3,9 C 80 % 10 cb 1021,7 hPa 0,0 l/m 0,1 km/h S-SW 202 0 min 0 W/m 1,6 km/h
21.01.2019 05:40 -8,0 C 1,9 C 1,2 C 0,8 C -3,9 C 80 % 10 cb 1021,7 hPa 0,0 l/m 2,0 km/h S-SW 202 0 min 0 W/m 3,2 km/h
21.01.2019 05:35 -7,9 C 1,9 C 1,2 C 0,8 C -3,9 C 80 % 10 cb 1021,6 hPa 0,0 l/m 3,2 km/h S-SW 202 0 min 0 W/m 4,8 km/h
21.01.2019 05:30 -8,0 C 1,9 C 1,2 C 0,8 C -3,9 C 80 % 10 cb 1021,6 hPa 0,0 l/m 2,0 km/h S-SW 202 0 min 0 W/m 3,2 km/h
21.01.2019 05:25 -7,9 C 1,9 C 1,2 C 0,8 C -3,9 C 80 % 10 cb 1021,5 hPa 0,0 l/m 0,2 km/h S-SW 202 0 min 0 W/m 1,6 km/h
21.01.2019 05:20 -8,0 C 1,9 C 1,2 C 0,8 C -3,9 C 81 % 10 cb 1021,5 hPa 0,0 l/m 2,9 km/h S-SW 202 0 min 0 W/m 4,8 km/h
21.01.2019 05:15 -8,1 C 1,9 C 1,2 C 0,8 C -3,9 C 81 % 10 cb 1021,5 hPa 0,0 l/m 4,1 km/h S-SW 202 0 min 0 W/m 6,4 km/h
21.01.2019 05:10 -8,2 C 1,9 C 1,2 C 0,8 C -3,9 C 81 % 10 cb 1021,5 hPa 0,0 l/m 3,4 km/h S-SW 202 0 min 0 W/m 4,8 km/h
21.01.2019 05:05 -8,2 C 1,9 C 1,2 C 0,8 C -3,9 C 81 % 10 cb 1021,4 hPa 0,0 l/m 4,0 km/h S-SW 202 0 min 0 W/m 6,4 km/h
21.01.2019 05:00 -8,1 C 1,9 C 1,2 C 0,8 C -3,9 C 81 % 10 cb 1021,4 hPa 0,0 l/m 3,1 km/h S-SW 202 0 min 0 W/m 4,8 km/h
21.01.2019 04:55 -8,1 C 1,9 C 1,2 C 0,8 C -3,9 C 80 % 10 cb 1021,5 hPa 0,0 l/m 1,8 km/h S-SW 202 0 min 0 W/m 4,8 km/h
21.01.2019 04:50 -7,9 C 1,9 C 1,2 C 0,8 C -3,9 C 80 % 10 cb 1021,5 hPa 0,0 l/m 1,1 km/h S-SW 202 0 min 0 W/m 3,2 km/h
21.01.2019 04:45 -7,9 C 1,9 C 1,2 C 0,8 C -3,9 C 81 % 10 cb 1021,4 hPa 0,0 l/m 2,2 km/h S-SW 202 0 min 0 W/m 3,2 km/h
21.01.2019 04:40 -8,1 C 1,9 C 1,2 C 0,8 C -3,9 C 81 % 10 cb 1021,4 hPa 0,0 l/m 3,4 km/h S-SW 202 0 min 0 W/m 4,8 km/h
21.01.2019 04:35 -8,1 C 1,9 C 1,2 C 0,8 C -3,9 C 80 % 10 cb 1021,4 hPa 0,0 l/m 3,0 km/h S-SW 202 0 min 0 W/m 4,8 km/h
21.01.2019 04:30 -8,2 C 1,9 C 1,2 C 0,8 C -3,9 C 80 % 10 cb 1021,4 hPa 0,0 l/m 4,1 km/h S-SW 202 0 min 0 W/m 6,4 km/h
21.01.2019 04:25 -8,0 C 1,9 C 1,2 C 0,8 C -3,9 C 80 % 10 cb 1021,3 hPa 0,0 l/m 2,9 km/h S-SW 202 0 min 0 W/m 4,8 km/h
21.01.2019 04:20 -7,9 C 1,9 C 1,2 C 0,8 C -3,9 C 80 % 10 cb 1021,3 hPa 0,0 l/m 2,6 km/h S-SW 202 0 min 0 W/m 4,8 km/h
21.01.2019 04:15 -7,9 C 1,9 C 1,2 C 0,8 C -3,9 C 80 % 10 cb 1021,3 hPa 0,0 l/m 1,4 km/h S-SW 202 0 min 0 W/m 3,2 km/h
21.01.2019 04:10 -7,7 C 1,9 C 1,2 C 0,8 C -3,8 C 79 % 10 cb 1021,3 hPa 0,0 l/m 0,8 km/h S-SW 202 0 min 0 W/m 3,2 km/h
21.01.2019 04:05 -7,6 C 1,9 C 1,2 C 0,8 C -3,8 C 79 % 10 cb 1021,3 hPa 0,0 l/m 1,1 km/h S-SW 202 0 min 0 W/m 3,2 km/h
21.01.2019 04:00 -7,4 C 1,9 C 1,2 C 0,8 C -3,8 C 79 % 10 cb 1021,3 hPa 0,0 l/m 0,3 km/h S-SW 202 0 min 0 W/m 1,6 km/h
21.01.2019 03:55 -7,3 C 1,9 C 1,2 C 0,8 C -3,8 C 79 % 10 cb 1021,5 hPa 0,0 l/m 0,6 km/h S-SW 202 0 min 0 W/m 3,2 km/h
21.01.2019 03:50 -7,4 C 1,9 C 1,2 C 0,8 C -3,8 C 78 % 10 cb 1021,4 hPa 0,0 l/m 1,4 km/h SW 225 0 min 0 W/m 3,2 km/h
21.01.2019 03:45 -7,4 C 1,9 C 1,2 C 0,8 C -3,8 C 79 % 10 cb 1021,4 hPa 0,0 l/m 3,4 km/h S 180 0 min 0 W/m 4,8 km/h
21.01.2019 03:40 -7,6 C 1,9 C 1,2 C 0,8 C -3,8 C 80 % 10 cb 1021,4 hPa 0,0 l/m 4,4 km/h S 180 0 min 0 W/m 6,4 km/h
21.01.2019 03:35 -7,7 C 1,9 C 1,2 C 0,8 C -3,8 C 80 % 10 cb 1021,3 hPa 0,0 l/m 4,9 km/h SW 225 0 min 0 W/m 6,4 km/h
21.01.2019 03:30 -7,7 C 1,9 C 1,2 C 0,8 C -3,8 C 80 % 10 cb 1021,4 hPa 0,0 l/m 4,1 km/h SW 225 0 min 0 W/m 6,4 km/h
21.01.2019 03:25 -7,7 C 1,9 C 1,2 C 0,8 C -3,8 C 79 % 9 cb 1021,4 hPa 0,0 l/m 4,3 km/h W 270 0 min 0 W/m 6,4 km/h
21.01.2019 03:20 -7,4 C 1,9 C 1,2 C 0,8 C -3,7 C 80 % 9 cb 1021,5 hPa 0,0 l/m 1,6 km/h W 270 0 min 0 W/m 3,2 km/h
21.01.2019 03:15 -7,6 C 1,9 C 1,2 C 0,8 C -3,7 C 80 % 9 cb 1021,5 hPa 0,0 l/m 2,4 km/h W 270 0 min 0 W/m 4,8 km/h
21.01.2019 03:10 -7,6 C 1,9 C 1,2 C 0,8 C -3,7 C 80 % 9 cb 1021,6 hPa 0,0 l/m 3,7 km/h W-NW 292 0 min 0 W/m 6,4 km/h
21.01.2019 03:05 -7,6 C 1,9 C 1,2 C 0,8 C -3,7 C 80 % 9 cb 1021,6 hPa 0,0 l/m 2,1 km/h S-SW 202 0 min 0 W/m 4,8 km/h
21.01.2019 03:00 -7,4 C 1,9 C 1,2 C 0,8 C -3,7 C 79 % 9 cb 1021,5 hPa 0,0 l/m 1,5 km/h S-SW 202 0 min 0 W/m 3,2 km/h
21.01.2019 02:55 -7,6 C 1,9 C 1,2 C 0,8 C -3,7 C 80 % 9 cb 1021,6 hPa 0,0 l/m 2,5 km/h S-SW 202 0 min 0 W/m 4,8 km/h
21.01.2019 02:50 -7,4 C 1,9 C 1,2 C 0,8 C -3,7 C 80 % 9 cb 1021,6 hPa 0,0 l/m 3,3 km/h SW 225 0 min 0 W/m 4,8 km/h
21.01.2019 02:45 -7,4 C 1,9 C 1,2 C 0,8 C -3,7 C 80 % 9 cb 1021,5 hPa 0,0 l/m 4,4 km/h SW 225 0 min 0 W/m 6,4 km/h
21.01.2019 02:40 -7,6 C 1,9 C 1,2 C 0,8 C -3,6 C 79 % 9 cb 1021,6 hPa 0,0 l/m 4,9 km/h SW 225 0 min 0 W/m 6,4 km/h
21.01.2019 02:35 -7,4 C 1,9 C 1,2 C 0,8 C -3,6 C 79 % 9 cb 1021,6 hPa 0,0 l/m 2,1 km/h SW 225 0 min 0 W/m 4,8 km/h
21.01.2019 02:30 -7,3 C 1,9 C 1,2 C 0,8 C -3,6 C 79 % 9 cb 1021,5 hPa 0,0 l/m 0,5 km/h SW 225 0 min 0 W/m 1,6 km/h
21.01.2019 02:25 -7,3 C 1,9 C 1,2 C 0,8 C -3,6 C 78 % 9 cb 1021,6 hPa 0,0 l/m 1,6 km/h SW 225 0 min 0 W/m 3,2 km/h
21.01.2019 02:20 -7,2 C 1,9 C 1,2 C 0,8 C -3,6 C 78 % 9 cb 1021,5 hPa 0,0 l/m 3,4 km/h SW 225 0 min 0 W/m 4,8 km/h
21.01.2019 02:15 -7,0 C 1,9 C 1,2 C 0,8 C -3,6 C 77 % 9 cb 1021,4 hPa 0,0 l/m 1,4 km/h SW 225 0 min 0 W/m 3,2 km/h
21.01.2019 02:10 -7,2 C 1,9 C 1,2 C 0,8 C -3,6 C 77 % 9 cb 1021,4 hPa 0,0 l/m 1,3 km/h SW 225 0 min 0 W/m 3,2 km/h
21.01.2019 02:05 -7,1 C 1,9 C 1,2 C 0,8 C -3,6 C 77 % 9 cb 1021,4 hPa 0,0 l/m 2,7 km/h SW 225 0 min 0 W/m 4,8 km/h
21.01.2019 02:00 -7,1 C 1,9 C 1,2 C 0,8 C -3,6 C 76 % 9 cb 1021,4 hPa 0,0 l/m 2,3 km/h SW 225 0 min 0 W/m 4,8 km/h
21.01.2019 01:55 -6,9 C 1,9 C 1,2 C 0,8 C -3,4 C 77 % 9 cb 1021,2 hPa 0,0 l/m 0,3 km/h SW 225 0 min 0 W/m 1,6 km/h
21.01.2019 01:50 -6,7 C 1,9 C 1,2 C 0,8 C -3,4 C 76 % 9 cb 1021,2 hPa 0,0 l/m 0,6 km/h SW 225 0 min 0 W/m 3,2 km/h
21.01.2019 01:45 -6,6 C 1,9 C 1,2 C 0,8 C -3,4 C 76 % 9 cb 1021,2 hPa 0,0 l/m 0,7 km/h SW 225 0 min 0 W/m 1,6 km/h
21.01.2019 01:40 -6,6 C 1,9 C 1,2 C 0,8 C -3,4 C 77 % 9 cb 1021,2 hPa 0,0 l/m 2,1 km/h SW 225 0 min 0 W/m 4,8 km/h
21.01.2019 01:35 -6,6 C 1,9 C 1,2 C 0,8 C -3,4 C 77 % 9 cb 1021,2 hPa 0,0 l/m 4,3 km/h SW 225 0 min 0 W/m 6,4 km/h
21.01.2019 01:30 -6,4 C 1,9 C 1,2 C 0,8 C -3,4 C 76 % 9 cb 1021,2 hPa 0,0 l/m 2,8 km/h W 270 0 min 0 W/m 4,8 km/h
21.01.2019 01:25 -6,1 C 1,9 C 1,2 C 0,8 C -3,4 C 76 % 9 cb 1021,2 hPa 0,0 l/m 2,9 km/h W 270 0 min 0 W/m 4,8 km/h
21.01.2019 01:20 -6,1 C 1,9 C 1,2 C 0,8 C -3,4 C 77 % 9 cb 1021,3 hPa 0,0 l/m 2,5 km/h W-SW 248 0 min 0 W/m 4,8 km/h
21.01.2019 01:15 -6,6 C 1,9 C 1,2 C 0,8 C -3,4 C 77 % 9 cb 1021,3 hPa 0,0 l/m 3,9 km/h W-SW 248 0 min 0 W/m 6,4 km/h
21.01.2019 01:10 -6,5 C 1,9 C 1,2 C 0,8 C -3,4 C 76 % 9 cb 1021,3 hPa 0,0 l/m 3,9 km/h S-SW 202 0 min 0 W/m 6,4 km/h
21.01.2019 01:05 -6,4 C 1,9 C 1,2 C 0,8 C -3,4 C 77 % 9 cb 1021,4 hPa 0,0 l/m 3,2 km/h S-SW 202 0 min 0 W/m 4,8 km/h
21.01.2019 01:00 -6,4 C 1,9 C 1,2 C 0,8 C -3,4 C 77 % 9 cb 1021,3 hPa 0,0 l/m 2,7 km/h S-SW 202 0 min 0 W/m 3,2 km/h
21.01.2019 00:55 -6,4 C 1,9 C 1,2 C 0,8 C -3,4 C 77 % 9 cb 1021,2 hPa 0,0 l/m 2,7 km/h S-SW 202 0 min 0 W/m 4,8 km/h
21.01.2019 00:50 -6,5 C 1,9 C 1,2 C 0,8 C -3,4 C 76 % 9 cb 1021,3 hPa 0,0 l/m 1,8 km/h S-SW 202 0 min 0 W/m 3,2 km/h
21.01.2019 00:45 -6,4 C 1,9 C 1,2 C 0,8 C -3,4 C 76 % 9 cb 1021,2 hPa 0,0 l/m 2,4 km/h S-SW 202 0 min 0 W/m 4,8 km/h
21.01.2019 00:40 -6,4 C 1,9 C 1,2 C 0,8 C -3,4 C 76 % 9 cb 1021,3 hPa 0,0 l/m 3,2 km/h S-SW 202 0 min 0 W/m 4,8 km/h
21.01.2019 00:35 -6,2 C 1,9 C 1,2 C 0,8 C -3,4 C 76 % 9 cb 1021,3 hPa 0,0 l/m 1,2 km/h S-SW 202 0 min 0 W/m 3,2 km/h
21.01.2019 00:30 -6,2 C 1,9 C 1,2 C 0,8 C -3,4 C 76 % 9 cb 1021,2 hPa 0,0 l/m 0,0 km/h S-SW 202 0 min 0 W/m 1,6 km/h
21.01.2019 00:25 -6,2 C 1,9 C 1,2 C 0,8 C -3,4 C 76 % 9 cb 1021,3 hPa 0,0 l/m 2,4 km/h S-SW 202 0 min 0 W/m 3,2 km/h
21.01.2019 00:20 -6,0 C 1,9 C 1,2 C 0,8 C -3,4 C 75 % 9 cb 1021,3 hPa 0,0 l/m 2,1 km/h S-SW 202 0 min 0 W/m 3,2 km/h
21.01.2019 00:15 -6,0 C 1,9 C 1,2 C 0,8 C -3,4 C 75 % 9 cb 1021,3 hPa 0,0 l/m 2,4 km/h S-SW 202 0 min 0 W/m 3,2 km/h
21.01.2019 00:10 -6,1 C 1,9 C 1,2 C 0,8 C -3,3 C 75 % 9 cb 1021,3 hPa 0,0 l/m 2,4 km/h S-SW 202 0 min 0 W/m 3,2 km/h
21.01.2019 00:05 -6,1 C 1,9 C 1,2 C 0,9 C -3,3 C 75 % 9 cb 1021,3 hPa 0,0 l/m 2,4 km/h S-SW 202 0 min 0 W/m 3,2 km/h
21.01.2019 00:00 -6,3 C 1,9 C 1,2 C 0,9 C -3,3 C 75 % 9 cb 1021,3 hPa 0,0 l/m 2,6 km/h S-SW 202 0 min 0 W/m 3,2 km/h
20.01.2019 23:55 -6,2 C 1,9 C 1,2 C 0,9 C -3,3 C 74 % 9 cb 1021,3 hPa 0,0 l/m 2,6 km/h S-SW 202 0 min 0 W/m 3,2 km/h
20.01.2019 23:50 -6,1 C 1,9 C 1,2 C 0,9 C -3,3 C 74 % 9 cb 1021,2 hPa 0,0 l/m 1,7 km/h S-SW 202 0 min 0 W/m 3,2 km/h
20.01.2019 23:45 -6,2 C 1,9 C 1,2 C 0,9 C -3,3 C 75 % 9 cb 1021,3 hPa 0,0 l/m 1,8 km/h S-SW 202 0 min 0 W/m 3,2 km/h
20.01.2019 23:40 -6,2 C 1,9 C 1,2 C 0,9 C -3,3 C 75 % 9 cb 1021,3 hPa 0,0 l/m 1,9 km/h S-SW 202 0 min 0 W/m 3,2 km/h
20.01.2019 23:35 -6,2 C 1,9 C 1,2 C 0,9 C -3,3 C 75 % 9 cb 1021,3 hPa 0,0 l/m 2,1 km/h S-SW 202 0 min 0 W/m 4,8 km/h
20.01.2019 23:30 -5,9 C 1,9 C 1,2 C 0,8 C -3,3 C 74 % 9 cb 1021,3 hPa 0,0 l/m 1,7 km/h S-SW 202 0 min 0 W/m 3,2 km/h
20.01.2019 23:25 -6,1 C 1,9 C 1,2 C 0,9 C -3,2 C 74 % 9 cb 1021,3 hPa 0,0 l/m 2,2 km/h S-SW 202 0 min 0 W/m 3,2 km/h
20.01.2019 23:20 -6,0 C 1,9 C 1,2 C 0,9 C -3,2 C 74 % 9 cb 1021,2 hPa 0,0 l/m 1,7 km/h S-SW 202 0 min 0 W/m 3,2 km/h
20.01.2019 23:15 -6,0 C 1,9 C 1,2 C 0,9 C -3,2 C 74 % 9 cb 1021,2 hPa 0,0 l/m 2,0 km/h S-SW 202 0 min 0 W/m 3,2 km/h
20.01.2019 23:10 -6,0 C 1,9 C 1,2 C 0,8 C -3,2 C 74 % 9 cb 1021,2 hPa 0,0 l/m 1,9 km/h S-SW 202 0 min 0 W/m 3,2 km/h
20.01.2019 23:05 -6,1 C 1,9 C 1,2 C 0,9 C -3,2 C 73 % 9 cb 1021,2 hPa 0,0 l/m 2,2 km/h S-SW 202 0 min 0 W/m 3,2 km/h
20.01.2019 23:00 -5,9 C 1,9 C 1,2 C 0,9 C -3,2 C 73 % 9 cb 1021,1 hPa 0,0 l/m 2,8 km/h S-SW 202 0 min 0 W/m 3,2 km/h
20.01.2019 22:55 -6,1 C 1,9 C 1,2 C 0,9 C -3,2 C 73 % 9 cb 1021,4 hPa 0,0 l/m 2,1 km/h S-SW 202 0 min 0 W/m 3,2 km/h
20.01.2019 22:50 -6,1 C 1,9 C 1,2 C 0,9 C -3,2 C 74 % 9 cb 1021,4 hPa 0,0 l/m 2,5 km/h S-SW 202 0 min 0 W/m 3,2 km/h
20.01.2019 22:45 -6,2 C 1,9 C 1,2 C 0,9 C -3,2 C 74 % 9 cb 1021,4 hPa 0,0 l/m 3,4 km/h S-SW 202 0 min 0 W/m 4,8 km/h
20.01.2019 22:40 -6,1 C 1,9 C 1,2 C 0,9 C -3,1 C 73 % 9 cb 1021,4 hPa 0,0 l/m 2,4 km/h S-SW 202 0 min 0 W/m 3,2 km/h
20.01.2019 22:35 -6,2 C 1,9 C 1,2 C 0,9 C -3,1 C 74 % 9 cb 1021,4 hPa 0,0 l/m 3,2 km/h S-SW 202 0 min 0 W/m 4,8 km/h
20.01.2019 22:30 -6,1 C 1,9 C 1,2 C 0,9 C -3,1 C 73 % 9 cb 1021,4 hPa 0,0 l/m 2,5 km/h S-SW 202 0 min 0 W/m 3,2 km/h
20.01.2019 22:25 -5,9 C 1,9 C 1,2 C 0,9 C -3,1 C 72 % 9 cb 1021,3 hPa 0,0 l/m 1,5 km/h S-SW 202 0 min 0 W/m 3,2 km/h
20.01.2019 22:20 -5,7 C 1,9 C 1,2 C 0,9 C -3,1 C 72 % 9 cb 1021,3 hPa 0,0 l/m 0,2 km/h S-SW 202 0 min 0 W/m 1,6 km/h
20.01.2019 22:15 -5,6 C 1,9 C 1,2 C 0,9 C -3,1 C 73 % 9 cb 1021,4 hPa 0,0 l/m 1,4 km/h S-SW 202 0 min 0 W/m 3,2 km/h
20.01.2019 22:10 -5,8 C 1,9 C 1,2 C 0,9 C -3,1 C 72 % 9 cb 1021,4 hPa 0,0 l/m 3,3 km/h S-SW 202 0 min 0 W/m 4,8 km/h
20.01.2019 22:05 -5,8 C 1,9 C 1,2 C 0,9 C -3,1 C 72 % 9 cb 1021,4 hPa 0,0 l/m 3,5 km/h S-SW 202 0 min 0 W/m 4,8 km/h
20.01.2019 22:00 -5,7 C 1,9 C 1,2 C 0,9 C -3,1 C 72 % 9 cb 1021,4 hPa 0,0 l/m 2,4 km/h S-SW 202 0 min 0 W/m 4,8 km/h
_ Min-Zeit 06:05 22:00 22:00 23:10 05:55 14:55 22:00 21:25 - 00:30 - - - - 05:50
Minimum _ -8,6 C 1,9 C 1,2 C 0,8 C -4,1 C 58 % 9 cb 922,2 hPa - 0,0 km/h - - - - 0,0 km/h
_ Max-Zeit 14:10 22:00 22:00 22:00 13:50 06:15 16:05 10:15 22:00 06:15 - - 09:50 12:00 01:10
Maximum _ -0,8 C 1,9 C 1,2 C 0,9 C -1,1 C 82 % 11 cb 1023,3 hPa 0,0 l/m 5,1 km/h
S-SW
- - 5 min 237 W/m 6,4 km/h
S-SW
Durchschnitt _ -4,7 C 1,9 C 1,2 C 0,8 C -2,6 C 74 % 10 cb 1019,6 hPa #0,0 l/m 1,3 km/h S-SW - #3:25 h 135 W/m 2,6 km/h